Location: Unspecified
(0.0000°N, 0.0000°E)
Time: 07:48:19
(UTC+00:00)

Courier 1B - Pass Details

Date: 27 September 2023
Orbit: 962 x 1208 km, 28.3° (Epoch: 06 December)

Event Time Altitude Azimuth Distance (km) Brightness Sun altitude
Rises 21:22:52 0° 292° (WNW) 3,939 11.2 -52.9°
Enters shadow 21:25:36 - 289° (WNW) 2,996 10.4 -53.6°
Reaches altitude 10° 21:25:46 10° 289° (WNW) 2,944 - -53.7°
Maximum altitude 21:32:49 59° 211° (SSW) 1,197 - -55.4°
Drops below altitude 10° 21:39:28 10° 132° (SE) 2,775 - -57.1°
Sets 21:42:07 0° 128° (SE) 3,698 - -57.7°
